STARLINK-34487

Last updated on Thu Jul 03 2025 00:02:07 GMT+0000 (Coordinated Universal Time)

1 64417U 25129F 25183.58335648 -.01553815 00000+0 -18440-1 0 9999 2 64417 70.0000 351.5719 0003191 265.5231 15.6976 15.63974346 3577
UTC large
Height (km)
Speed (km/s)
/
Latitude / Longitude
Inclination (degrees)
Orbital Period (minutes)
Azimuth
Elevation
Range (km)
Doppler Factor

Next 0 passes for location: London (51.5072 / 0.1276)

Sorry there are no passes over London.